Walla Walla, WA

6:11 AM PDT on August 23, 2017 (GMT -0700)
Walla Walla Regional

Weather History for KALW - May, 2013

Change the Weather History Date:

Wednesday, May 29, 2013

  Actual Average Record
Temperature  
Mean Temperature 57 °F 62 °F  
Max Temperature 64 °F 74 °F 99 °F (1983)
Min Temperature 50 °F 51 °F 37 °F (1951)
Degree Days  
Heating Degree Days 8 4  
Month to date heating degree days 200  
Since 1 July heating degree days 4941  
Cooling Degree Days 0 2  
Month to date cooling degree days 31  
Year to date cooling degree days 33  
Growing Degree Days 7 (Base 50)    
Moisture  
Dew Point 47 °F    
Average Humidity 76    
Maximum Humidity 89    
Minimum Humidity 56    
Precipitation  
Precipitation 0.24 in 0.07 in 0.45 in (1991)
Month to date precipitation 1.99  
Year to date precipitation 10.50  
Snow  
Snow 0.00 in 0.00 in 0.00 in (2002)
Month to date snowfall 0.0  
Year to date snowfall 6.0  
Since 1 July snowfall 11.7  
Snow Depth -    
Sea Level Pressure  
Sea Level Pressure 29.79 in    
Wind  
Wind Speed 7 mph (South)    
Max Wind Speed 23 mph    
Max Gust Speed 32 mph    
Visibility 9 miles    
Events Rain , Thunderstorm    
T = Trace of Precipitation, MM = Missing Value Source: NWS Daily Summary

Daily Weather History Graph

Daily Weather History Graph

Search for Another Location

Airport or City:

Trip Planner

Search our weather history database for the weather conditions in past years. The results will help you decide how hot, cold, wet, or windy it might be!

Date:

Astronomy

May. 29, 2013 Rise Set
Actual Time 5:07 AM PDT 8:34 PM PDT
Civil Twilight 4:30 AM PDT 9:11 PM PDT
Nautical Twilight 3:41 AM PDT 10:00 PM PDT
Astronomical Twilight 2:37 AM PDT 11:04 PM PDT
Moon No Moon Rise 10:21 AM PDT (5/29)
Length of Visible Light 16h 41m
Length of Day
15h 27m
Waning Gibbous, 72% of the Moon is Illuminated
May 29
Waning Gibbous
May 31
Last Quarter
Jun 8
New
Jun 16
First Quarter
Jun 23
Full

Hourly Weather History & Observations

Time (PDT) Temp. Dew Point Humidity Pressure Visibility Wind Dir Wind Speed Gust Speed Precip Events Conditions
12:53 AM 53.1 °F 45.0 °F 74% 29.75 in 10.0 mi SE 5.8 mph - N/A   Clear
1:53 AM 51.1 °F 44.1 °F 77% 29.73 in 10.0 mi East 5.8 mph - N/A   Clear
2:53 AM 50.0 °F 44.1 °F 80% 29.72 in 10.0 mi East 6.9 mph - N/A   Clear
3:53 AM 50.0 °F 44.1 °F 80% 29.68 in 10.0 mi ENE 8.1 mph - N/A   Clear
4:53 AM 52.0 °F 45.0 °F 77% 29.69 in 10.0 mi South 3.5 mph - N/A   Overcast
5:53 AM 52.0 °F 45.0 °F 77% 29.68 in 10.0 mi SSE 5.8 mph - 0.00 in   Overcast
6:53 AM 51.1 °F 46.9 °F 86% 29.71 in 9.0 mi SSW 4.6 mph - 0.01 in Rain Light Rain
7:53 AM 51.1 °F 48.0 °F 89% 29.73 in 3.0 mi SSE 6.9 mph - 0.06 in Rain Rain
8:53 AM 53.1 °F 48.0 °F 83% 29.72 in 10.0 mi North 5.8 mph - 0.03 in Rain Light Rain
9:53 AM 52.0 °F 48.0 °F 86% 29.74 in 2.5 mi Calm Calm - 0.03 in Rain Rain
10:01 AM 51.8 °F 48.2 °F 88% 29.74 in 10.0 mi Calm Calm - 0.00 in Rain Light Rain
10:31 AM 53.6 °F 48.2 °F 82% 29.75 in 10.0 mi Calm Calm - 0.00 in Rain Light Rain
10:53 AM 53.1 °F 48.9 °F 86% 29.77 in 10.0 mi Calm Calm - 0.00 in   Overcast
11:05 AM 53.6 °F 48.2 °F 82% 29.77 in 10.0 mi West 4.6 mph - N/A   Overcast
11:53 AM 57.0 °F 50.0 °F 77% 29.77 in 10.0 mi Variable 3.5 mph - N/A   Overcast
12:53 PM 64.0 °F 50.0 °F 60% 29.77 in 10.0 mi WSW 8.1 mph - N/A   Mostly Cloudy
1:53 PM 63.0 °F 46.9 °F 56% 29.79 in 10.0 mi SW 11.5 mph 17.3 mph N/A   Mostly Cloudy
2:06 PM 57.2 °F 48.2 °F 72% 29.80 in 8.0 mi South 23.0 mph 32.2 mph 0.00 in Rain , Thunderstorm Thunderstorms and Rain
2:32 PM 57.2 °F 50.0 °F 77% 29.80 in 10.0 mi SSE 17.3 mph 24.2 mph 0.07 in   Overcast
2:53 PM 61.0 °F 51.1 °F 70% 29.80 in 10.0 mi SSE 15.0 mph - 0.07 in   Mostly Cloudy
3:53 PM 62.1 °F 48.0 °F 60% 29.81 in 10.0 mi SW 16.1 mph 23.0 mph 0.00 in   Mostly Cloudy
4:53 PM 57.9 °F 51.1 °F 78% 29.81 in 10.0 mi South 11.5 mph - 0.02 in   Overcast
5:42 PM 57.2 °F 50.0 °F 77% 29.83 in 10.0 mi WNW 18.4 mph 27.6 mph 0.01 in Rain Light Rain
5:53 PM 55.9 °F 48.9 °F 77% 29.84 in 6.0 mi NW 8.1 mph - 0.01 in Rain Light Rain
6:53 PM 57.0 °F 50.0 °F 77% 29.86 in 10.0 mi SSE 9.2 mph - 0.01 in   Mostly Cloudy
7:53 PM 59.0 °F 48.0 °F 67% 29.86 in 10.0 mi SSW 10.4 mph - N/A   Overcast
8:53 PM 55.9 °F 46.0 °F 69% 29.89 in 10.0 mi South 9.2 mph - N/A   Partly Cloudy
9:53 PM 55.0 °F 44.1 °F 67% 29.92 in 10.0 mi South 12.7 mph - N/A   Mostly Cloudy
10:53 PM 53.1 °F 43.0 °F 69% 29.94 in 10.0 mi SSW 11.5 mph - N/A   Partly Cloudy
11:53 PM 54.0 °F 43.0 °F 66% 29.95 in 10.0 mi South 11.5 mph - N/A   Mostly Cloudy